Weather History for K36U - April, 2012

Change the Weather History Date:

Tuesday, April 24, 2012

  Actual Average (KSLC) Record (KSLC)
Temperature  
Mean Temperature 56 °F 53 °F  
Max Temperature 78 °F 64 °F 86 °F (2012)
Min Temperature 35 °F 41 °F 27 °F (1950)
Degree Days  
Heating Degree Days 8 13  
Month to date heating degree days 369  
Since 1 July heating degree days 5287  
Cooling Degree Days 0 0  
Month to date cooling degree days 0  
Year to date cooling degree days 0  
Growing Degree Days 6 (Base 50)    
Moisture  
Dew Point 28 °F    
Average Humidity 40    
Maximum Humidity 87    
Minimum Humidity 10    
Precipitation  
Precipitation 0.00 in 0.06 in 0.70 in (1945)
Month to date precipitation 1.57  
Year to date precipitation 5.86  
Snow  
Snow 0.00 in 0.10 in 1.60 in (1958)
Month to date snowfall 3.6  
Since 1 July snowfall 55.5  
Snow Depth -    
Sea Level Pressure  
Sea Level Pressure 30.01 in    
Wind  
Wind Speed 4 mph (SSW)    
Max Wind Speed 18 mph    
Max Gust Speed 26 mph    
Visibility 10 miles    
Events      
T = Trace of Precipitation, MM = Missing Value Source: NWS Daily Summary

Daily Weather History Graph

Daily Weather History Graph

Search for Another Location

Airport or City:

Trip Planner

Search our weather history database for the weather conditions in past years. The results will help you decide how hot, cold, wet, or windy it might be!

Date:

Astronomy

Apr. 24, 2012 Rise Set
Actual Time 6:33 AM MDT 8:14 PM MDT
Civil Twilight 6:04 AM MDT 8:43 PM MDT
Nautical Twilight 5:29 AM MDT 9:19 PM MDT
Astronomical Twilight 4:51 AM MDT 9:56 PM MDT
Moon 8:31 AM MDT (4/24) 11:38 PM MDT (4/24)
Length of Visible Light 14h 39m
Length of Day
13h 41m
Waxing Crescent, 10% of the Moon is Illuminated
Apr 24
Waxing Crescent
Apr 29
First Quarter
May 5
Full
May 12
Last Quarter
May 20
New

Hourly Weather History & Observations

Time (MDT) Temp. Windchill Dew Point Humidity Pressure Visibility Wind Dir Wind Speed Gust Speed Precip Events Conditions
12:15 AM 42.8 °F - 32.0 °F 66% 30.05 in 10.0 mi Calm Calm - N/A   Clear
12:35 AM 42.8 °F - 32.0 °F 66% 30.05 in 10.0 mi Calm Calm - N/A   Clear
12:55 AM 42.8 °F 40.1 °F 32.0 °F 66% 30.05 in 10.0 mi SSE 4.6 mph - N/A   Clear
1:15 AM 44.6 °F 42.2 °F 32.0 °F 61% 30.05 in 10.0 mi East 4.6 mph - N/A   Clear
1:35 AM 44.6 °F - 32.0 °F 61% 30.05 in 10.0 mi Calm Calm - N/A   Clear
1:55 AM 41.0 °F - 32.0 °F 70% 30.05 in 10.0 mi Calm Calm - N/A   Clear
2:15 AM 42.8 °F - 32.0 °F 66% 30.05 in 10.0 mi Calm Calm - N/A   Clear
2:35 AM 41.0 °F 37.1 °F 32.0 °F 70% 30.05 in 10.0 mi East 5.8 mph - N/A   Clear
2:55 AM 41.0 °F - 32.0 °F 70% 30.05 in 10.0 mi Calm Calm - N/A   Clear
3:15 AM 39.2 °F - 32.0 °F 75% 30.04 in 10.0 mi Calm Calm - N/A   Clear
3:35 AM 41.0 °F - 32.0 °F 70% 30.05 in 10.0 mi Calm Calm - N/A   Clear
4:15 AM 35.6 °F 32.8 °F 32.0 °F 87% 30.05 in 10.0 mi ESE 3.5 mph - N/A   Clear
4:35 AM 37.4 °F - 32.0 °F 81% 30.05 in 10.0 mi Calm Calm - N/A   Clear
4:55 AM 41.0 °F - 32.0 °F 70% 30.05 in 10.0 mi Calm Calm - N/A   Clear
5:15 AM 37.4 °F - 32.0 °F 81% 30.05 in 10.0 mi Calm Calm - N/A   Clear
5:35 AM 35.6 °F - 32.0 °F 87% 30.05 in 10.0 mi Calm Calm - N/A   Clear
6:15 AM 35.6 °F - 32.0 °F 87% 30.05 in 10.0 mi Calm Calm - N/A   Clear
6:35 AM 37.4 °F - 33.8 °F 87% 30.05 in 10.0 mi Calm Calm - N/A   Clear
6:55 AM 41.0 °F - 33.8 °F 76% 30.06 in 10.0 mi Calm Calm - N/A   Clear
7:15 AM 41.0 °F 39.0 °F 33.8 °F 76% 30.06 in 10.0 mi ESE 3.5 mph - N/A   Clear
7:35 AM 41.0 °F - 35.6 °F 81% 30.07 in 10.0 mi Calm Calm - N/A   Scattered Clouds
7:55 AM 42.8 °F - 35.6 °F 76% 30.07 in 10.0 mi Calm Calm - N/A   Clear
8:15 AM 42.8 °F - 35.6 °F 76% 30.08 in 10.0 mi Calm Calm - N/A   Clear
8:35 AM 50.0 °F - 37.4 °F 62% 30.08 in 10.0 mi Calm Calm - N/A   Clear
8:55 AM 51.8 °F - 37.4 °F 58% 30.08 in 10.0 mi East 4.6 mph - N/A   Clear
9:15 AM 55.4 °F - 35.6 °F 47% 30.07 in 10.0 mi Calm Calm - N/A   Clear
9:35 AM 53.6 °F - 41.0 °F 62% 30.07 in 10.0 mi West 3.5 mph - N/A   Clear
9:55 AM 55.4 °F - 39.2 °F 54% 30.07 in 10.0 mi Calm Calm - N/A   Clear
10:15 AM 59.0 °F - 35.6 °F 42% 30.05 in 10.0 mi Calm Calm - N/A   Clear
10:35 AM 60.8 °F - 35.6 °F 39% 30.05 in 10.0 mi Calm Calm - N/A   Clear
10:55 AM 64.4 °F - 37.4 °F 37% 30.05 in 10.0 mi ESE 3.5 mph - N/A   Clear
11:15 AM 71.6 °F - 32.0 °F 23% 30.05 in 10.0 mi SSW 12.7 mph - N/A   Clear
11:35 AM 73.4 °F - 30.2 °F 20% 30.05 in 10.0 mi SW 17.3 mph 20.7 mph N/A   Clear
11:55 AM 75.2 °F - 30.2 °F 19% 30.04 in 10.0 mi SW 10.4 mph - N/A   Clear
12:15 PM 77.0 °F - 28.4 °F 17% 30.04 in 10.0 mi SSW 12.7 mph - N/A   Clear
12:35 PM 77.0 °F - 30.2 °F 18% 30.03 in 10.0 mi SSW 11.5 mph 18.4 mph N/A   Clear
12:55 PM 77.0 °F - 30.2 °F 18% 30.03 in 10.0 mi SSW 13.8 mph 17.3 mph N/A   Clear
1:15 PM 77.0 °F - 30.2 °F 18% 30.01 in 10.0 mi SSW 11.5 mph 19.6 mph N/A   Clear
1:35 PM 77.0 °F - 32.0 °F 19% 30.01 in 10.0 mi SW 15.0 mph 19.6 mph N/A   Clear
1:55 PM 77.0 °F - 32.0 °F 19% 30.00 in 10.0 mi SW 12.7 mph - N/A   Clear
2:15 PM 78.8 °F - 30.2 °F 17% 30.00 in 10.0 mi WSW 18.4 mph 26.5 mph N/A   Clear
2:35 PM 78.8 °F - 32.0 °F 18% 30.00 in 10.0 mi WSW 18.4 mph 26.5 mph N/A   Clear
2:55 PM 78.8 °F - 30.2 °F 17% 30.00 in 10.0 mi WSW 13.8 mph 24.2 mph N/A   Clear
3:15 PM 78.8 °F - 26.6 °F 15% 29.99 in 10.0 mi SW 15.0 mph 23.0 mph N/A   Clear
3:35 PM 78.8 °F - 21.2 °F 12% 29.98 in 10.0 mi SW 17.3 mph 26.5 mph N/A   Clear
3:55 PM 78.8 °F - 21.2 °F 12% 29.97 in 10.0 mi SW 18.4 mph 21.9 mph N/A   Clear
4:15 PM 78.8 °F - 19.4 °F 11% 29.96 in 10.0 mi WSW 17.3 mph - N/A   Clear
4:35 PM 78.8 °F - 24.8 °F 14% 29.95 in 10.0 mi WSW 17.3 mph 25.3 mph N/A   Clear
4:55 PM 78.8 °F - 23.0 °F 13% 29.94 in 10.0 mi WSW 12.7 mph 23.0 mph N/A   Clear
5:35 PM 78.8 °F - 23.0 °F 13% 29.93 in 10.0 mi WSW 15.0 mph - N/A   Clear
5:55 PM 78.8 °F - 21.2 °F 12% 29.93 in 10.0 mi WSW 13.8 mph 23.0 mph N/A   Clear
6:15 PM 77.0 °F - 21.2 °F 12% 29.92 in 10.0 mi SW 11.5 mph - N/A   Clear
6:35 PM 75.2 °F - 21.2 °F 13% 29.92 in 10.0 mi SW 11.5 mph 20.7 mph N/A   Clear
6:55 PM 71.6 °F - 21.2 °F 15% 29.93 in 10.0 mi SW 9.2 mph - N/A   Clear
7:15 PM 69.8 °F - 19.4 °F 15% 29.93 in 10.0 mi SSW 4.6 mph - N/A   Clear
7:35 PM 69.8 °F - 19.4 °F 15% 29.93 in 10.0 mi SW 5.8 mph - N/A   Clear
7:55 PM 69.8 °F - 12.2 °F 11% 29.93 in 10.0 mi South 6.9 mph - N/A   Clear
8:15 PM 69.8 °F - 12.2 °F 11% 29.93 in 10.0 mi South 5.8 mph - N/A   Clear
8:35 PM 69.8 °F - 10.4 °F 10% 29.93 in 10.0 mi South 3.5 mph - N/A   Clear
8:55 PM 64.4 °F - 14.0 °F 14% 29.94 in 10.0 mi South 4.6 mph - N/A   Clear
9:15 PM 64.4 °F - 15.8 °F 15% 29.94 in 10.0 mi Calm Calm - N/A   Clear
9:35 PM 64.4 °F - 17.6 °F 16% 29.95 in 10.0 mi WSW 4.6 mph - N/A   Clear
9:55 PM 59.0 °F - 23.0 °F 25% 29.95 in 10.0 mi Calm Calm - N/A   Clear
10:15 PM 55.4 °F - 23.0 °F 29% 29.96 in 10.0 mi NNE 5.8 mph - N/A   Clear
10:35 PM 57.2 °F - 24.8 °F 29% 29.97 in 10.0 mi East 3.5 mph - N/A   Clear
10:55 PM 55.4 °F - 23.0 °F 29% 29.97 in 10.0 mi SSW 9.2 mph - N/A   Clear
11:15 PM 57.2 °F - 26.6 °F 31% 29.97 in 10.0 mi WNW 4.6 mph - N/A   Clear
11:35 PM 59.0 °F - 24.8 °F 27% 29.96 in 10.0 mi SW 9.2 mph - N/A   Clear
11:55 PM 60.8 °F - 21.2 °F 22% 29.96 in 10.0 mi SW 8.1 mph - N/A   Clear